SCP
0 0 0 0 0 0 0 0 0 0 0 0 0 0 0 0 0 0 0 0 0 0 0 0 0 0 0 0 0 0 0 0 0 0 0 0 0 0 0 0 0 0 0 0 0 0 0 0 0 0 0 0 0 0
0 0 0 0 0 0 0 0 -0 0 0 0 0 0 0 0 0 0 0 0 0 0 0 0 0 0 0 0 0 0 0 0 0 0 0 0 0 0 0 0 0 0 0 0 0 0 0 0 0 0 0 0 0 0
0 0 0 0 0 0 0 0 0 0 0 0 0 0 0 0 0 0 0 0 0 0 0 0 0 0 0 0 0 0 0 0 0 0 0 0 0 0 0 0 0 0 0 0 0 0 0 0 0 0 0 0 0 0
0 -0 0 0 0 0 0 0 0 0 0 0 0 0 0 0 0 0 0 0 0 0 0 0 0 0 0 0 0 0 0 0 0 0 0 0 0 0 0 0 0 0 0 0 0 0 0 0 0 0 0 0 -0 0
0 -0 -0 0 0 0 0 0 -0 0 0 0 0 0 0 0 0 0 0 0 0 0 0 0 0 0 0 0 0 0 0 0 0 0 0 0 0 0 0 0 0 0 0 0 0 -0 0 -0 0 0 0 0 -0 0
0 0 -0 -0 -0 0 0 0 -0 0 0 0 0 0 0 0 0 0 0 0 0 0 0 0 0 0 0 0 0 0 0 0 0 0 0 0 0 0 0 0 0 0 0 0 0 0 0 0 0 0 0 0 0 0
-0 -0 -0 -0 0 0 0 0 0 0 0 0 0 0 0 0 0 0 0 0 0 0 0 0 0 0 0 0 0 0 0 0 0 0 0 0 0 0 0 0 0 0 0 0 0 0 0 0 0 0 0 0 0 0
-0 -0 -0 0 0 0 0 0 0 0 0 0 0 0 0 0 0 0 0 0 0 0 0 0 0 0 0 0 0 0 0 0 0 0 0 0 0 0 0 0 0 0 0 0 0 0 0 0 0 0 0 0 0 0
-0 -0 0 -0 -0 0 0 0 0 0 0 0 0 0 0 0 0 0 0 0 0 0 0 0 0 0 0 0 0 0 0 0 0 0 0 0 0 0 0 0 0 0 0 0 0 0 0 0 0 0 0 0 0 0
0 0 0 0 0 0 0 0 0 0 0 0 0 0 0 0 0 0 0 0 0 0 0 0 0 0 0 0 0 0 0 0 0 0 0 0 0 0 0 0 0 0 0 0 0 0 0 0 0 0 0 0 0 0
0 0 0 0 0 0 0 0 0 0 0 0 0 0 0 0 0 0 0 0 0 0 0 0 0 0 0 0 0 0 0 0 0 0 0 0 0 0 0 0 0 0 0 0 0 0 0 0 0 0 0 0 0 0
0 0 0 0 0 0 0 0 0 0 0 0 0 0 0 0 0 0 0 0 0 0 0 0 0 0 0 0 0 0 0 0 0 0 0 0 0 0 0 0 0 0 0 0 0 0 0 0 0 0 0 0 0 0
0 0 0 0 0 0 0 0 0 0 0 0 0 0 0 0 0 0 0 0 0 0 0 0 0 0 0 0 0 0 0 0 0 0 0 0 0 0 0 0 0 0 0 0 0 0 0 0 0 0 0 0 0 0
-0 -0 0 0 0 0 0 0 -0 0 0 0 0 0 0 0 0 0 0 0 0 0 0 0 0 0 0 0 0 0 0 0 0 0 0 0 0 0 0 0 0 0 0 0 0 0 0 0 0 0 0 0 0 0
-0 -0 -0 -0 0 0 0 0 0 0 0 0 0 0 0 0 0 0 0 0 0 0 0 0 0 0 0 0 0 0 0 0 0 0 0 0 0 0 0 0 0 0 0 0 0 0 0 0 0 0 0 0 0 0
-0 -0 -0 0 -0 0 0 0 0 0 0 0 0 0 0 0 0 0 0 0 0 0 0 0 0 0 0 0 0 0 0 0 0 0 0 0 0 0 0 0 0 0 0 0 0 0 0 0 0 0 0 0 0 0
-0 0 0 0 0 0 0 0 0 0 0 0 0 0 0 0 0 0 0 0 0 0 0 0 0 0 0 0 0 0 0 0 0 0 0 0 0 0 0 0 0 0 0 0 0 0 0 0 0 0 0 0 0 0
0 0 0 0 0 0 0 0 0 0 0 0 0 0 0 0 0 0 0 0 0 0 0 0 0 0 0 0 0 0 0 0 0 0 0 0 -0 0 0 0 0 0 0 0 0 0 0 0 0 0 0 0 0 0
0 0 0 0 0 0 0 0 0 0 0 0 0 0 0 0 0 0 0 0 0 0 0 0 0 0 0 0 0 0 0 0 0 0 0 0 0 0 0 0 0 0 0 0 0 0 0 0 0 0 0 0 0 0
0 0 0 0 0 0 0 0 0 0 0 0 0 0 0 0 0 0 0 0 0 0 0 0 0 0 0 0 0 0 0 0 0 0 0 0 0 0 0 0 0 0 0 0 0 0 0 0 0 0 0 0 0 0
0 0 0 0 0 0 0 0 0 0 0 0 0 0 0 0 0 0 0 0 0 0 0 0 0 0 0 0 0 0 0 0 0 0 0 0 0 0 0 0 0 0 0 0 0 0 0 0 0 0 0 0 0 0
0 0 0 0 0 0 0 0 0 0 0 0 0 0 0 0 0 0 0 0 0 0 0 0 0 0 0 0 0 0 0 0 0 0 0 0 0 0 0 0 0 0 0 0 0 0 0 0 0 0 0 0 0 0
0 0 0 0 0 0 0 0 0 0 0 0 0 0 0 0 0 0 0 0 0 0 0 0 0 0 0 0 0 0 0 0 0 0 0 0 0 0 0 0 0 0 0 0 0 0 0 0 0 0 0 0 0 0
0 0 0 0 0 0 0 0 0 0 0 0 0 0 0 0 0 0 0 0 0 0 0 0 0 0 0 0 0 0 0 0 0 0 0 0 0 0 0 0 0 0 0 0 0 0 0 0 0 0 0 0 0 0
0 0 0 0 0 0 0 0 0 0 0 0 0 0 0 0 0 0 0 0 0 0 0 0 0 0 0 0 0 0 0 0 0 0 0 0 0 0 0 0 0 0 0 0 0 0 0 0 0 0 0 0 0 0
0 0 0 0 0 0 0 0 0 0 0 0 0 0 0 0 0 0 0 0 0 0 0 0 0 0 0 0 0 0 0 0 0 0 0 0 0 0 0 0 0 0 0 0 0 0 0 0 0 0 0 0 0 0
0 0 0 0 0 0 0 0 0 0 0 0 0 0 0 0 0 0 0 0 0 0 0 0 0 0 0 0 0 0 0 0 0 0 0 0 0 0 0 0 0 0 0 0 0 0 0 0 0 0 0 0 0 0
0 0 0 0 0 0 0 0 0 0 0 0 0 0 0 0 0 0 0 0 0 0 0 0 0 0 0 0 0 0 0 0 0 0 0 0 0 0 0 0 0 0 0 0 0 0 0 0 0 0 0 0 0 0
0 0 0 0 0 0 0 0 0 0 0 0 0 0 0 0 0 0 0 0 0 0 0 0 0 0 0 0 0 0 0 0 0 0 0 0 0 0 0 0 0 0 0 0 0 0 0 0 0 0 0 0 0 0
0 0 0 0 0 0 0 0 0 0 0 0 0 0 0 0 0 0 0 0 0 0 0 0 0 0 0 0 0 0 0 0 0 0 0 0 0 0 0 0 0 0 0 0 0 0 0 0 0 0 0 0 0 0
0 0 0 0 0 0 0 0 0 0 0 0 0 0 0 0 0 0 0 0 0 0 0 -0 0 0 0 0 0 0 0 0 0 0 0 0 0 0 0 0 0 0 0 0 0 0 0 0 0 0 0 0 0 0
0 0 0 0 0 0 0 0 0 0 0 0 0 0 0 0 0 0 0 0 0 -0 0 0 0 0 0 0 0 0 0 0 0 0 0 0 0 0 0 0 0 0 0 0 0 0 0 0 0 0 0 0 0 0
0 0 0 0 0 0 0 0 0 0 0 0 0 0 0 0 0 0 0 -0 0 0 -0 0 0 0 0 0 0 0 0 0 0 0 -0 -0 0 0 0 0 0 0 0 0 0 0 0 0 0 0 0 0 0 0
Wind_Speed_500mb
72 73 76 77 76 84 81 83 88 76 85 81 79 77 77 79 79 78 72 74 67 31 26 34 41 35 21 25 12 13 9 7 9 13 10 11 12 13 14 22 21 19 15 13 15 21 38 15 12 3 17 33 33 34
68 68 69 71 77 82 87 84 87 87 83 81 79 80 77 80 78 77 63 68 65 37 14 41 44 46 47 43 32 24 12 13 19 7 6 5 10 6 9 17 8 14 13 17 9 5 2 10 11 26 28 41 49 40
65 70 70 71 72 74 79 82 86 79 76 82 78 77 77 77 78 79 62 62 67 45 29 41 52 40 44 60 54 23 22 33 27 28 9 6 13 4 13 20 25 11 5 8 14 5 7 44 44 26 30 41 52 52
71 70 73 73 72 71 74 79 81 105 84 82 78 76 76 75 75 76 64 69 70 23 11 16 26 56 60 56 54 61 58 35 36 34 24 13 13 16 18 15 16 19 9 19 27 34 26 36 28 39 49 41 42 50
75 75 73 74 71 71 71 73 74 86 73 77 74 82 76 67 63 64 70 74 75 55 11 9 23 40 35 38 47 46 49 57 38 19 14 19 24 16 13 6 14 30 33 23 29 37 11 31 48 43 43 52 54 49
68 65 67 84 70 69 70 67 76 73 69 83 76 87 71 65 62 61 34 75 75 69 17 8 11 28 47 44 34 37 41 39 37 26 18 17 26 34 10 17 42 69 69 63 51 63 51 61 56 54 49 44 35 34
54 63 62 56 58 65 65 73 71 75 61 64 65 63 66 67 68 66 14 22 90 72 20 8 5 21 32 32 33 37 31 27 30 18 23 46 38 33 21 27 47 49 60 67 76 64 42 55 43 35 22 21 18 19
53 48 58 39 37 42 54 56 71 66 63 56 59 58 56 57 64 69 54 15 62 65 18 9 4 6 25 14 13 19 16 20 21 19 19 16 32 29 20 39 59 56 56 54 59 50 55 48 43 34 32 29 28 23
37 36 25 30 32 52 55 54 57 52 49 52 49 46 48 46 25 67 63 45 79 26 14 8 12 9 20 14 13 10 19 9 18 11 12 16 15 10 9 27 51 50 37 59 60 64 64 58 56 48 41 39 40 41
17 17 38 40 45 49 53 51 49 50 50 52 55 22 12 27 39 53 56 39 22 17 12 5 14 7 22 20 12 4 9 7 6 9 4 11 21 49 7 3 4 9 17 36 40 32 36 44 42 44 44 40 38 35
6 13 24 35 41 43 41 42 43 49 55 50 16 8 56 63 47 8 8 6 8 6 11 12 16 11 19 7 7 14 4 3 5 6 8 6 6 5 14 13 15 17 15 17 22 27 31 35 36 37 35 34 32 32
14 18 24 27 31 36 39 36 39 51 41 34 28 38 21 10 10 7 4 5 4 7 9 9 13 16 18 13 5 6 6 4 12 4 5 6 3 17 26 23 22 23 20 22 28 28 29 31 31 33 34 32 30 33
22 23 25 24 23 27 31 35 40 42 43 51 21 8 8 3 7 9 9 3 6 7 11 10 8 15 10 13 5 6 10 11 3 5 8 3 8 24 35 33 26 22 20 19 20 23 26 27 26 26 28 29 30 35
21 17 12 8 9 24 32 42 49 52 32 8 7 9 4 4 3 5 6 7 7 8 16 11 11 6 9 9 6 8 4 4 4 4 9 3 21 36 33 30 29 25 21 19 18 19 19 19 18 19 23 25 28 33
37 31 23 5 21 18 45 74 69 55 10 8 7 8 5 9 13 11 16 14 12 11 12 6 4 9 6 6 4 6 2 8 10 9 3 11 28 31 31 29 25 21 18 16 16 15 14 13 14 15 19 23 25 30
28 32 39 40 51 59 57 45 36 26 12 11 17 9 8 6 3 9 14 12 11 9 10 5 4 6 10 7 9 13 9 11 3 3 13 27 27 26 26 24 22 19 15 11 10 8 6 8 11 15 20 24 30 35
16 37 25 28 39 51 45 32 14 17 13 11 10 21 17 21 11 7 8 8 7 4 4 4 7 10 5 3 6 2 4 2 6 14 18 21 26 25 21 18 16 11 7 5 3 4 8 12 17 22 26 30 33 36
33 22 26 29 28 26 27 16 14 16 16 21 9 10 20 17 16 13 8 11 7 6 2 4 5 6 5 6 3 1 2 7 9 12 15 15 15 14 12 12 10 8 8 10 12 18 23 26 29 33 35 37 38 38
12 17 20 18 14 10 10 14 13 12 13 12 17 18 19 20 29 18 12 12 12 10 9 5 5 6 6 4 6 5 1 6 8 10 10 12 12 10 10 9 10 13 16 21 24 29 32 33 36 35 35 34 36 35
2 9 13 12 11 10 12 14 13 16 8 9 11 12 12 12 11 22 20 10 8 6 11 7 2 1 3 7 9 9 6 4 5 8 7 6 6 6 8 10 14 18 22 26 29 30 32 32 31 28 27 26 26 27
1 12 17 17 19 22 16 10 15 12 13 14 12 8 10 11 12 13 14 13 10 9 3 3 2 1 5 8 8 7 7 7 7 9 10 1 6 9 12 12 15 18 23 26 27 28 28 29 28 24 20 19 19 17
8 11 14 17 15 14 18 18 15 11 9 11 8 8 10 6 9 11 12 17 8 5 3 3 3 5 6 8 7 8 8 8 6 6 8 11 13 14 15 16 17 21 23 24 23 23 23 22 20 16 12 10 9 8
19 17 16 15 12 15 8 11 9 10 7 3 6 7 7 6 6 9 9 6 4 3 3 4 6 7 8 9 7 6 8 9 11 12 14 16 17 19 19 20 19 17 19 19 18 16 14 12 9 6 5 6 7 10
17 15 19 17 23 5 7 14 10 9 9 7 6 5 5 4 5 8 3 1 2 1 3 6 8 8 10 9 7 8 11 12 13 16 17 17 19 21 18 16 15 12 12 11 10 7 4 2 3 5 8 11 14 17
11 25 17 15 21 11 12 10 11 8 6 5 6 5 5 5 4 3 2 2 1 2 5 9 8 8 11 12 12 13 15 16 16 19 21 17 16 17 16 13 10 7 5 2 1 4 7 9 11 14 16 19 21 25
17 23 12 9 10 8 4 6 6 2 3 6 2 9 6 4 4 5 4 3 3 5 8 10 12 13 13 14 16 17 17 17 17 16 18 17 14 11 9 6 5 5 5 8 10 12 14 15 18 21 23 27 31 37
12 8 13 16 7 5 8 9 7 8 6 4 5 8 4 3 5 5 3 4 4 6 8 10 11 12 14 15 15 16 16 15 14 11 11 10 8 7 7 8 9 11 12 14 15 18 21 24 27 31 34 34 35 40
11 15 7 16 12 14 6 5 5 2 3 5 2 4 3 7 5 4 7 7 7 8 9 11 12 14 14 14 13 13 12 10 10 8 7 8 10 11 13 14 15 14 17 20 24 27 30 32 34 37 39 40 37 36
11 10 6 8 6 9 8 3 4 2 4 2 2 3 4 6 6 8 12 11 11 12 12 12 12 13 13 12 11 10 10 10 11 11 11 12 13 13 13 14 17 21 24 26 29 33 35 37 38 41 42 43 42 43
8 10 4 5 6 3 5 7 6 4 3 5 5 4 5 3 5 11 12 12 12 12 11 11 11 10 10 10 10 10 11 12 12 13 15 15 15 16 19 21 23 26 30 32 33 33 35 40 42 44 49 51 52 55
9 5 4 7 4 2 7 4 2 2 0 1 1 3 4 3 4 8 11 12 12 12 12 12 12 11 11 12 12 12 12 12 12 14 15 16 18 20 22 25 28 31 34 37 39 40 43 45 48 51 52 54 55 59
9 9 4 3 1 3 6 6 3 2 3 3 3 5 6 5 6 6 8 13 13 13 14 15 12 11 12 12 11 11 12 14 16 18 19 20 21 24 28 30 33 37 40 42 44 47 49 53 56 58 63 66 68 71
3 5 5 2 1 2 9 10 7 4 3 3 3 5 4 5 7 4 5 8 10 11 11 11 11 12 12 12 13 14 15 17 19 21 23 25 27 30 34 35 38 41 45 48 50 52 54 57 62 65 69 73 76 78
Wind_Direction_500mb
279 272 268 269 265 258 255 254 254 242 233 230 228 225 222 222 219 213 213 209 206 221 231 209 214 208 189 195 193 170 141 199 168 205 209 204 231 215 226 246 260 259 252 232 236 234 242 18 92 274 327 323 322 322
278 277 273 273 265 258 250 251 252 255 222 223 223 223 221 217 219 209 207 218 200 208 233 225 224 225 225 229 222 207 221 163 198 203 227 251 228 212 197 253 164 247 249 263 268 322 118 64 15 325 331 299 308 298
279 274 273 275 268 255 248 245 251 240 220 222 218 220 217 214 211 209 209 205 197 204 225 236 232 220 230 234 232 212 227 233 230 230 205 226 244 188 226 233 242 233 220 226 352 187 248 290 295 287 309 294 302 293
285 276 271 271 269 255 247 239 246 244 216 215 215 214 206 213 208 204 207 204 204 176 200 238 234 232 231 228 229 234 239 231 240 253 243 240 235 215 242 256 240 245 180 254 265 267 275 256 251 291 295 290 293 280
287 273 267 268 265 249 244 235 239 247 203 208 209 202 207 199 204 207 215 211 211 192 173 191 204 213 213 205 219 231 237 231 229 220 216 233 231 238 235 244 244 225 238 239 251 260 242 275 291 280 270 281 292 285
282 272 268 276 258 237 229 234 237 220 206 211 227 191 192 197 196 198 201 207 213 204 200 184 197 202 221 228 221 231 230 227 217 227 241 241 235 211 217 238 243 246 247 247 252 257 273 278 279 276 272 276 278 273
278 281 274 264 252 240 233 232 224 196 193 197 186 189 193 196 197 197 204 189 199 202 185 161 219 197 203 207 217 228 228 222 225 234 231 239 239 223 243 242 246 246 252 244 245 254 255 250 263 278 263 268 287 301
295 282 284 240 208 227 196 175 177 185 179 168 177 188 193 190 199 203 206 195 185 184 185 151 195 166 184 172 208 205 203 219 228 233 246 240 235 217 238 232 242 227 246 256 250 237 240 261 265 253 264 267 270 266
296 296 170 158 144 136 150 145 155 151 164 173 175 171 175 190 179 198 208 197 184 183 151 146 152 177 169 183 191 200 206 228 217 225 225 209 246 245 217 240 241 247 237 253 258 250 254 257 264 261 266 264 259 259
290 11 128 139 141 141 142 144 151 157 155 154 161 144 147 159 155 158 156 168 171 170 141 135 146 152 165 172 176 189 217 231 225 224 161 217 247 253 342 7 306 291 252 254 261 260 255 260 265 272 275 271 264 257
118 100 118 135 139 139 145 149 155 150 161 154 139 116 137 136 134 114 121 147 126 113 150 146 172 140 180 142 174 201 183 245 254 242 213 213 255 96 343 320 309 300 289 281 273 261 268 271 280 281 278 269 254 241
137 141 142 145 152 155 153 157 164 170 168 169 152 128 123 100 89 120 98 79 89 163 150 160 186 171 156 173 148 178 198 147 244 149 235 242 140 7 347 336 321 315 303 290 284 282 277 273 275 280 277 264 246 226
109 119 125 138 155 167 172 171 183 187 164 141 140 105 101 19 120 141 135 105 145 172 169 159 127 133 132 179 175 161 197 224 10 214 218 242 7 345 345 339 334 328 319 304 291 279 275 276 277 274 266 256 236 218
105 124 121 122 186 193 192 189 187 170 151 98 113 90 83 86 63 145 158 133 118 141 131 117 112 134 166 180 172 199 199 143 208 238 237 36 346 337 339 337 332 335 328 319 305 291 281 274 269 260 247 231 216 206
86 91 74 102 179 212 175 146 157 157 94 84 60 88 79 111 72 98 101 95 66 88 118 139 155 159 159 203 201 102 156 236 212 218 48 334 332 335 336 336 334 329 321 312 303 286 279 274 247 226 216 203 190 185
89 80 62 67 142 130 128 121 109 77 69 67 51 92 105 104 68 60 62 82 59 112 132 99 122 194 204 194 170 207 162 215 195 314 310 322 332 336 334 336 333 330 327 321 304 294 267 239 211 189 180 170 167 164
99 63 60 78 101 129 133 127 71 58 65 58 56 64 80 73 99 106 89 39 38 93 127 131 154 205 320 192 213 219 216 50 299 320 330 330 331 334 338 338 339 339 346 0 38 109 143 154 150 146 149 138 143 143
93 92 93 104 120 127 110 60 72 64 57 46 73 38 62 69 86 68 62 38 61 78 45 115 116 168 205 228 233 110 310 311 311 329 332 337 340 346 356 6 16 43 68 89 112 123 123 130 133 128 129 128 129 127
121 109 109 104 82 78 72 51 48 89 75 96 96 79 86 88 63 61 70 76 85 100 118 83 136 179 167 163 156 186 112 16 335 329 340 354 4 12 40 60 82 100 113 117 122 123 127 129 125 126 125 128 124 120
282 173 145 123 99 65 73 44 49 84 96 107 92 85 87 82 79 56 56 88 103 64 47 45 105 95 105 157 163 194 236 266 299 307 321 4 31 48 79 98 113 118 121 124 124 125 125 124 122 120 122 121 121 116
114 138 138 134 86 65 80 60 62 67 93 83 85 59 67 60 46 39 30 41 66 41 78 81 89 188 205 199 201 205 213 226 240 264 286 190 104 105 108 117 123 126 124 122 125 123 126 121 117 114 115 116 110 105
122 121 103 68 71 67 71 53 83 88 79 95 73 57 56 43 27 17 25 49 66 56 105 136 118 149 180 179 178 194 201 208 240 225 178 155 135 129 129 129 132 138 135 129 126 123 119 115 115 116 110 98 84 62
117 109 64 50 79 54 40 49 74 41 82 50 69 55 29 30 32 9 70 59 86 47 140 160 154 160 171 178 186 205 199 179 175 173 165 153 150 145 146 143 140 135 131 125 116 109 105 102 94 85 53 18 347 329
91 57 35 41 36 44 36 33 46 58 65 44 57 45 354 7 6 56 81 342 35 3 214 183 158 153 162 162 176 175 165 163 165 160 151 149 150 142 144 136 135 135 126 119 115 113 105 58 352 327 318 316 317 317
85 15 21 9 24 37 36 19 3 43 57 354 77 7 326 346 66 56 212 274 43 106 159 172 189 198 188 164 154 149 150 152 157 157 146 145 154 147 141 141 141 146 138 117 342 300 302 307 312 316 315 314 313 311
67 19 44 6 11 57 8 59 33 29 35 45 345 309 328 78 66 251 237 203 157 149 148 151 149 153 162 163 155 152 152 153 153 159 152 156 158 162 160 178 215 250 282 298 301 303 307 309 310 308 307 309 313 314
55 346 32 29 27 63 58 57 60 69 61 38 309 349 31 69 264 256 192 186 169 167 166 168 167 164 163 156 151 150 154 159 161 171 176 185 190 200 222 249 274 283 289 297 301 302 302 302 305 309 312 313 313 308
65 34 63 1 47 36 106 51 49 62 282 342 292 25 155 193 238 205 197 174 164 160 159 160 161 159 162 164 165 167 170 174 175 183 206 239 250 254 265 274 280 281 291 298 302 305 308 309 310 308 305 305 306 302
46 6 15 20 56 52 49 127 246 282 288 275 159 281 267 258 254 190 174 172 167 167 167 168 170 173 174 186 195 202 210 219 230 240 255 264 267 268 271 278 287 294 298 303 305 306 307 306 304 303 304 306 307 307
22 18 68 50 74 1 14 354 357 337 247 238 261 284 301 309 176 180 184 181 181 180 175 183 191 194 195 209 218 228 231 237 246 250 258 265 274 280 287 291 297 299 302 303 301 297 296 298 299 300 301 302 304 306
1 35 76 56 102 345 335 336 63 55 4 317 317 279 306 306 252 221 205 196 196 195 198 203 212 222 229 234 241 246 252 255 259 264 273 281 286 289 291 296 297 296 296 297 300 301 302 301 301 301 302 304 307 308
23 46 61 93 207 333 351 345 292 264 276 269 263 296 286 285 268 234 221 214 219 229 231 231 233 240 244 247 251 258 267 272 278 285 289 291 293 294 294 294 295 295 296 296 298 300 301 302 304 306 308 308 309 309
38 35 44 24 29 349 348 354 16 337 263 268 275 302 294 273 257 260 243 231 219 218 221 227 237 245 251 258 266 275 279 282 289 293 293 290 289 290 291 295 296 298 299 300 300 302 304 304 305 305 306 307 307 308
Wind_Speed_850mb
72 73 76 77 76 84 81 83 88 76 85 81 79 77 77 79 79 78 72 74 67 31 26 34 41 35 21 25 12 13 9 7 9 13 10 11 12 13 14 22 21 19 15 13 15 21 38 15 12 3 17 33 33 34
68 68 69 71 77 82 87 84 87 87 83 81 79 80 77 80 78 77 63 68 65 37 14 41 44 46 47 43 32 24 12 13 19 7 6 5 10 6 9 17 8 14 13 17 9 5 2 10 11 26 28 41 49 40
65 70 70 71 72 74 79 82 86 79 76 82 78 77 77 77 78 79 62 62 67 45 29 41 52 40 44 60 54 23 22 33 27 28 9 6 13 4 13 20 25 11 5 8 14 5 7 44 44 26 30 41 52 52
71 70 73 73 72 71 74 79 81 105 84 82 78 76 76 75 75 76 64 69 70 23 11 16 26 56 60 56 54 61 58 35 36 34 24 13 13 16 18 15 16 19 9 19 27 34 26 36 28 39 49 41 42 50
75 75 73 74 71 71 71 73 74 86 73 77 74 82 76 67 63 64 70 74 75 55 11 9 23 40 35 38 47 46 49 57 38 19 14 19 24 16 13 6 14 30 33 23 29 37 11 31 48 43 43 52 54 49
68 65 67 84 70 69 70 67 76 73 69 83 76 87 71 65 62 61 34 75 75 69 17 8 11 28 47 44 34 37 41 39 37 26 18 17 26 34 10 17 42 69 69 63 51 63 51 61 56 54 49 44 35 34
54 63 62 56 58 65 65 73 71 75 61 64 65 63 66 67 68 66 14 22 90 72 20 8 5 21 32 32 33 37 31 27 30 18 23 46 38 33 21 27 47 49 60 67 76 64 42 55 43 35 22 21 18 19
53 48 58 39 37 42 54 56 71 66 63 56 59 58 56 57 64 69 54 15 62 65 18 9 4 6 25 14 13 19 16 20 21 19 19 16 32 29 20 39 59 56 56 54 59 50 55 48 43 34 32 29 28 23
37 36 25 30 32 52 55 54 57 52 49 52 49 46 48 46 25 67 63 45 79 26 14 8 12 9 20 14 13 10 19 9 18 11 12 16 15 10 9 27 51 50 37 59 60 64 64 58 56 48 41 39 40 41
17 17 38 40 45 49 53 51 49 50 50 52 55 22 12 27 39 53 56 39 22 17 12 5 14 7 22 20 12 4 9 7 6 9 4 11 21 49 7 3 4 9 17 36 40 32 36 44 42 44 44 40 38 35
6 13 24 35 41 43 41 42 43 49 55 50 16 8 56 63 47 8 8 6 8 6 11 12 16 11 19 7 7 14 4 3 5 6 8 6 6 5 14 13 15 17 15 17 22 27 31 35 36 37 35 34 32 32
14 18 24 27 31 36 39 36 39 51 41 34 28 38 21 10 10 7 4 5 4 7 9 9 13 16 18 13 5 6 6 4 12 4 5 6 3 17 26 23 22 23 20 22 28 28 29 31 31 33 34 32 30 33
22 23 25 24 23 27 31 35 40 42 43 51 21 8 8 3 7 9 9 3 6 7 11 10 8 15 10 13 5 6 10 11 3 5 8 3 8 24 35 33 26 22 20 19 20 23 26 27 26 26 28 29 30 35
21 17 12 8 9 24 32 42 49 52 32 8 7 9 4 4 3 5 6 7 7 8 16 11 11 6 9 9 6 8 4 4 4 4 9 3 21 36 33 30 29 25 21 19 18 19 19 19 18 19 23 25 28 33
37 31 23 5 21 18 45 74 69 55 10 8 7 8 5 9 13 11 16 14 12 11 12 6 4 9 6 6 4 6 2 8 10 9 3 11 28 31 31 29 25 21 18 16 16 15 14 13 14 15 19 23 25 30
28 32 39 40 51 59 57 45 36 26 12 11 17 9 8 6 3 9 14 12 11 9 10 5 4 6 10 7 9 13 9 11 3 3 13 27 27 26 26 24 22 19 15 11 10 8 6 8 11 15 20 24 30 35
16 37 25 28 39 51 45 32 14 17 13 11 10 21 17 21 11 7 8 8 7 4 4 4 7 10 5 3 6 2 4 2 6 14 18 21 26 25 21 18 16 11 7 5 3 4 8 12 17 22 26 30 33 36
33 22 26 29 28 26 27 16 14 16 16 21 9 10 20 17 16 13 8 11 7 6 2 4 5 6 5 6 3 1 2 7 9 12 15 15 15 14 12 12 10 8 8 10 12 18 23 26 29 33 35 37 38 38
12 17 20 18 14 10 10 14 13 12 13 12 17 18 19 20 29 18 12 12 12 10 9 5 5 6 6 4 6 5 1 6 8 10 10 12 12 10 10 9 10 13 16 21 24 29 32 33 36 35 35 34 36 35
2 9 13 12 11 10 12 14 13 16 8 9 11 12 12 12 11 22 20 10 8 6 11 7 2 1 3 7 9 9 6 4 5 8 7 6 6 6 8 10 14 18 22 26 29 30 32 32 31 28 27 26 26 27
1 12 17 17 19 22 16 10 15 12 13 14 12 8 10 11 12 13 14 13 10 9 3 3 2 1 5 8 8 7 7 7 7 9 10 1 6 9 12 12 15 18 23 26 27 28 28 29 28 24 20 19 19 17
8 11 14 17 15 14 18 18 15 11 9 11 8 8 10 6 9 11 12 17 8 5 3 3 3 5 6 8 7 8 8 8 6 6 8 11 13 14 15 16 17 21 23 24 23 23 23 22 20 16 12 10 9 8
19 17 16 15 12 15 8 11 9 10 7 3 6 7 7 6 6 9 9 6 4 3 3 4 6 7 8 9 7 6 8 9 11 12 14 16 17 19 19 20 19 17 19 19 18 16 14 12 9 6 5 6 7 10
17 15 19 17 23 5 7 14 10 9 9 7 6 5 5 4 5 8 3 1 2 1 3 6 8 8 10 9 7 8 11 12 13 16 17 17 19 21 18 16 15 12 12 11 10 7 4 2 3 5 8 11 14 17
11 25 17 15 21 11 12 10 11 8 6 5 6 5 5 5 4 3 2 2 1 2 5 9 8 8 11 12 12 13 15 16 16 19 21 17 16 17 16 13 10 7 5 2 1 4 7 9 11 14 16 19 21 25
17 23 12 9 10 8 4 6 6 2 3 6 2 9 6 4 4 5 4 3 3 5 8 10 12 13 13 14 16 17 17 17 17 16 18 17 14 11 9 6 5 5 5 8 10 12 14 15 18 21 23 27 31 37
12 8 13 16 7 5 8 9 7 8 6 4 5 8 4 3 5 5 3 4 4 6 8 10 11 12 14 15 15 16 16 15 14 11 11 10 8 7 7 8 9 11 12 14 15 18 21 24 27 31 34 34 35 40
11 15 7 16 12 14 6 5 5 2 3 5 2 4 3 7 5 4 7 7 7 8 9 11 12 14 14 14 13 13 12 10 10 8 7 8 10 11 13 14 15 14 17 20 24 27 30 32 34 37 39 40 37 36
11 10 6 8 6 9 8 3 4 2 4 2 2 3 4 6 6 8 12 11 11 12 12 12 12 13 13 12 11 10 10 10 11 11 11 12 13 13 13 14 17 21 24 26 29 33 35 37 38 41 42 43 42 43
8 10 4 5 6 3 5 7 6 4 3 5 5 4 5 3 5 11 12 12 12 12 11 11 11 10 10 10 10 10 11 12 12 13 15 15 15 16 19 21 23 26 30 32 33 33 35 40 42 44 49 51 52 55
9 5 4 7 4 2 7 4 2 2 0 1 1 3 4 3 4 8 11 12 12 12 12 12 12 11 11 12 12 12 12 12 12 14 15 16 18 20 22 25 28 31 34 37 39 40 43 45 48 51 52 54 55 59
9 9 4 3 1 3 6 6 3 2 3 3 3 5 6 5 6 6 8 13 13 13 14 15 12 11 12 12 11 11 12 14 16 18 19 20 21 24 28 30 33 37 40 42 44 47 49 53 56 58 63 66 68 71
3 5 5 2 1 2 9 10 7 4 3 3 3 5 4 5 7 4 5 8 10 11 11 11 11 12 12 12 13 14 15 17 19 21 23 25 27 30 34 35 38 41 45 48 50 52 54 57 62 65 69 73 76 78
Wind_Direction_850mb
279 272 268 269 265 258 255 254 254 242 233 230 228 225 222 222 219 213 213 209 206 221 231 209 214 208 189 195 193 170 141 199 168 205 209 204 231 215 226 246 260 259 252 232 236 234 242 18 92 274 327 323 322 322
278 277 273 273 265 258 250 251 252 255 222 223 223 223 221 217 219 209 207 218 200 208 233 225 224 225 225 229 222 207 221 163 198 203 227 251 228 212 197 253 164 247 249 263 268 322 118 64 15 325 331 299 308 298
279 274 273 275 268 255 248 245 251 240 220 222 218 220 217 214 211 209 209 205 197 204 225 236 232 220 230 234 232 212 227 233 230 230 205 226 244 188 226 233 242 233 220 226 352 187 248 290 295 287 309 294 302 293
285 276 271 271 269 255 247 239 246 244 216 215 215 214 206 213 208 204 207 204 204 176 200 238 234 232 231 228 229 234 239 231 240 253 243 240 235 215 242 256 240 245 180 254 265 267 275 256 251 291 295 290 293 280
287 273 267 268 265 249 244 235 239 247 203 208 209 202 207 199 204 207 215 211 211 192 173 191 204 213 213 205 219 231 237 231 229 220 216 233 231 238 235 244 244 225 238 239 251 260 242 275 291 280 270 281 292 285
282 272 268 276 258 237 229 234 237 220 206 211 227 191 192 197 196 198 201 207 213 204 200 184 197 202 221 228 221 231 230 227 217 227 241 241 235 211 217 238 243 246 247 247 252 257 273 278 279 276 272 276 278 273
278 281 274 264 252 240 233 232 224 196 193 197 186 189 193 196 197 197 204 189 199 202 185 161 219 197 203 207 217 228 228 222 225 234 231 239 239 223 243 242 246 246 252 244 245 254 255 250 263 278 263 268 287 301
295 282 284 240 208 227 196 175 177 185 179 168 177 188 193 190 199 203 206 195 185 184 185 151 195 166 184 172 208 205 203 219 228 233 246 240 235 217 238 232 242 227 246 256 250 237 240 261 265 253 264 267 270 266
296 296 170 158 144 136 150 145 155 151 164 173 175 171 175 190 179 198 208 197 184 183 151 146 152 177 169 183 191 200 206 228 217 225 225 209 246 245 217 240 241 247 237 253 258 250 254 257 264 261 266 264 259 259
290 11 128 139 141 141 142 144 151 157 155 154 161 144 147 159 155 158 156 168 171 170 141 135 146 152 165 172 176 189 217 231 225 224 161 217 247 253 342 7 306 291 252 254 261 260 255 260 265 272 275 271 264 257
118 100 118 135 139 139 145 149 155 150 161 154 139 116 137 136 134 114 121 147 126 113 150 146 172 140 180 142 174 201 183 245 254 242 213 213 255 96 343 320 309 300 289 281 273 261 268 271 280 281 278 269 254 241
137 141 142 145 152 155 153 157 164 170 168 169 152 128 123 100 89 120 98 79 89 163 150 160 186 171 156 173 148 178 198 147 244 149 235 242 140 7 347 336 321 315 303 290 284 282 277 273 275 280 277 264 246 226
109 119 125 138 155 167 172 171 183 187 164 141 140 105 101 19 120 141 135 105 145 172 169 159 127 133 132 179 175 161 197 224 10 214 218 242 7 345 345 339 334 328 319 304 291 279 275 276 277 274 266 256 236 218
105 124 121 122 186 193 192 189 187 170 151 98 113 90 83 86 63 145 158 133 118 141 131 117 112 134 166 180 172 199 199 143 208 238 237 36 346 337 339 337 332 335 328 319 305 291 281 274 269 260 247 231 216 206
86 91 74 102 179 212 175 146 157 157 94 84 60 88 79 111 72 98 101 95 66 88 118 139 155 159 159 203 201 102 156 236 212 218 48 334 332 335 336 336 334 329 321 312 303 286 279 274 247 226 216 203 190 185
89 80 62 67 142 130 128 121 109 77 69 67 51 92 105 104 68 60 62 82 59 112 132 99 122 194 204 194 170 207 162 215 195 314 310 322 332 336 334 336 333 330 327 321 304 294 267 239 211 189 180 170 167 164
99 63 60 78 101 129 133 127 71 58 65 58 56 64 80 73 99 106 89 39 38 93 127 131 154 205 320 192 213 219 216 50 299 320 330 330 331 334 338 338 339 339 346 0 38 109 143 154 150 146 149 138 143 143
93 92 93 104 120 127 110 60 72 64 57 46 73 38 62 69 86 68 62 38 61 78 45 115 116 168 205 228 233 110 310 311 311 329 332 337 340 346 356 6 16 43 68 89 112 123 123 130 133 128 129 128 129 127
121 109 109 104 82 78 72 51 48 89 75 96 96 79 86 88 63 61 70 76 85 100 118 83 136 179 167 163 156 186 112 16 335 329 340 354 4 12 40 60 82 100 113 117 122 123 127 129 125 126 125 128 124 120
282 173 145 123 99 65 73 44 49 84 96 107 92 85 87 82 79 56 56 88 103 64 47 45 105 95 105 157 163 194 236 266 299 307 321 4 31 48 79 98 113 118 121 124 124 125 125 124 122 120 122 121 121 116
114 138 138 134 86 65 80 60 62 67 93 83 85 59 67 60 46 39 30 41 66 41 78 81 89 188 205 199 201 205 213 226 240 264 286 190 104 105 108 117 123 126 124 122 125 123 126 121 117 114 115 116 110 105
122 121 103 68 71 67 71 53 83 88 79 95 73 57 56 43 27 17 25 49 66 56 105 136 118 149 180 179 178 194 201 208 240 225 178 155 135 129 129 129 132 138 135 129 126 123 119 115 115 116 110 98 84 62
117 109 64 50 79 54 40 49 74 41 82 50 69 55 29 30 32 9 70 59 86 47 140 160 154 160 171 178 186 205 199 179 175 173 165 153 150 145 146 143 140 135 131 125 116 109 105 102 94 85 53 18 347 329
91 57 35 41 36 44 36 33 46 58 65 44 57 45 354 7 6 56 81 342 35 3 214 183 158 153 162 162 176 175 165 163 165 160 151 149 150 142 144 136 135 135 126 119 115 113 105 58 352 327 318 316 317 317
85 15 21 9 24 37 36 19 3 43 57 354 77 7 326 346 66 56 212 274 43 106 159 172 189 198 188 164 154 149 150 152 157 157 146 145 154 147 141 141 141 146 138 117 342 300 302 307 312 316 315 314 313 311
67 19 44 6 11 57 8 59 33 29 35 45 345 309 328 78 66 251 237 203 157 149 148 151 149 153 162 163 155 152 152 153 153 159 152 156 158 162 160 178 215 250 282 298 301 303 307 309 310 308 307 309 313 314
55 346 32 29 27 63 58 57 60 69 61 38 309 349 31 69 264 256 192 186 169 167 166 168 167 164 163 156 151 150 154 159 161 171 176 185 190 200 222 249 274 283 289 297 301 302 302 302 305 309 312 313 313 308
65 34 63 1 47 36 106 51 49 62 282 342 292 25 155 193 238 205 197 174 164 160 159 160 161 159 162 164 165 167 170 174 175 183 206 239 250 254 265 274 280 281 291 298 302 305 308 309 310 308 305 305 306 302
46 6 15 20 56 52 49 127 246 282 288 275 159 281 267 258 254 190 174 172 167 167 167 168 170 173 174 186 195 202 210 219 230 240 255 264 267 268 271 278 287 294 298 303 305 306 307 306 304 303 304 306 307 307
22 18 68 50 74 1 14 354 357 337 247 238 261 284 301 309 176 180 184 181 181 180 175 183 191 194 195 209 218 228 231 237 246 250 258 265 274 280 287 291 297 299 302 303 301 297 296 298 299 300 301 302 304 306
1 35 76 56 102 345 335 336 63 55 4 317 317 279 306 306 252 221 205 196 196 195 198 203 212 222 229 234 241 246 252 255 259 264 273 281 286 289 291 296 297 296 296 297 300 301 302 301 301 301 302 304 307 308
23 46 61 93 207 333 351 345 292 264 276 269 263 296 286 285 268 234 221 214 219 229 231 231 233 240 244 247 251 258 267 272 278 285 289 291 293 294 294 294 295 295 296 296 298 300 301 302 304 306 308 308 309 309
38 35 44 24 29 349 348 354 16 337 263 268 275 302 294 273 257 260 243 231 219 218 221 227 237 245 251 258 266 275 279 282 289 293 293 290 289 290 291 295 296 298 299 300 300 302 304 304 305 305 306 307 307 308